SCP
0 0 0 0 0 0 0 0 0 0 0 0 0 0 0 0 0 0 0 0 0 0 0 0 0 0 0 0 0 0 0 0 0 0 0 0 0 0 0 0 0 0 0
0 0 0 0 0 0 0 0 0 0 0 0 0 0 0 0 0 0 0 0 0 0 0 0 0 0 0 0 0 0 0 0 0 0 0 0 0 0 0 0 0 0 0
0 0 0 0 0 0 0 0 0 0 0 0 0 0 0 0 0 0 0 0 0 0 0 0 0 0 0 0 0 0 0 0 0 0 0 0 0 0 0 0 0 0 0
0 0 0 0 0 0 0 0 0 0 0 0 0 0 0 0 0 0 0 0 0 0 0 0 0 0 0 0 0 0 0 0 0 0 0 0 0 0 0 0 0 0 0
0 0 0 0 0 0 0 0 0 0 0 0 0 0 0 0 0 0 0 0 0 0 0 0 0 0 0 0 0 0 0 0 0 0 0 0 0 0 0 0 0 0 0
0 0 0 0 0 0 0 0 0 0 0 0 0 0 0 0 0 0 0 0 0 0 0 0 0 0 0 0 0 0 0 0 0 0 0 0 0 0 0 0 0 0 0
0 0 0 0 0 0 0 0 0 0 0 0 0 0 0 0 0 0 0 0 0 0 0 0 0 0 0 0 0 0 0 0 0 0 0 0 0 0 0 0 0 0 0
0 0 0 0 0 0 0 0 0 0 0 0 0 0 0 0 0 0 0 0 0 0 0 0 0 0 0 0 0 0 0 0 0 0 0 0 0 0 0 0 0 0 0
0 0 0 0 0 0 0 0 0 0 0 0 0 0 0 0 0 0 0 0 0 0 0 0 0 0 0 0 0 0 0 0 0 0 0 0 0 0 0 0 0 0 0
0 0 -0 0 0 0 0 0 0 0 0 0 0 0 0 0 0 0 0 0 0 0 0 0 0 0 0 0 0 0 0 0 0 0 0 0 0 0 0 0 0 0 0
0 0 0 -0 -0 0 0 0 0 0 0 0 0 0 0 0 0 0 0 0 0 0 0 0 0 0 0 0 0 0 0 0 0 0 0 0 0 0 0 0 0 0 0
0 0 0 0 0 0 0 0 0 0 0 0 0 0 0 0 0 0 0 0 0 0 0 0 0 0 0 0 0 0 0 0 0 0 0 0 0 0 0 0 0 0 0
0 0 0 0 0 0 0 0 0 0 0 0 0 0 0 0 0 0 0 0 0 0 0 0 0 0 0 0 0 0 0 0 0 0 0 0 0 0 0 0 0 0 0
0 0 0 0 0 0 0 0 0 0 0 0 0 0 0 0 0 0 0 0 0 0 0 0 0 0 0 0 0 0 0 0 0 0 0 0 0 0 0 0 0 0 0
1 0 0 0 0 0 0 0 0 0 0 0 0 0 0 0 0 0 0 0 0 0 0 0 0 0 0 0 0 0 0 0 0 0 0 0 0 0 0 0 0 0 0
1 1 0 0 0 0 0 0 0 0 0 0 0 0 0 0 0 0 0 0 0 0 0 0 0 0 0 0 0 0 0 0 0 0 0 0 0 0 0 0 0 0 0
1 1 1 0 0 0 0 0 0 0 0 0 0 0 0 0 0 0 0 0 0 0 0 0 0 0 0 0 0 0 0 0 0 0 0 0 0 0 0 0 0 0 0
1 1 1 1 0 0 0 0 0 0 0 0 0 0 0 0 0 0 0 0 0 0 0 0 0 0 0 0 0 0 0 0 0 0 0 0 0 0 0 0 0 0 0
1 1 1 0 0 0 0 0 0 0 0 0 0 0 0 0 0 0 0 0 0 0 0 0 0 0 0 0 0 0 0 0 0 0 0 0 0 0 0 0 0 0 0
1 1 1 0 0 0 0 0 0 0 0 0 0 0 0 0 0 0 0 0 0 0 0 0 0 0 0 0 0 0 0 0 0 0 0 0 0 0 0 0 0 0 0
1 1 1 1 0 0 0 0 0 0 0 0 0 0 0 0 0 0 0 0 0 0 0 0 0 0 0 0 0 0 0 0 0 0 0 0 0 0 0 0 0 0 0
1 1 1 1 1 0 0 0 0 0 0 0 0 0 0 0 0 0 0 0 0 0 0 0 0 0 0 0 0 0 0 0 0 0 0 0 0 0 0 0 0 0 0
1 1 1 1 1 1 0 0 0 0 0 0 0 0 0 0 0 0 0 0 0 0 0 0 0 0 0 0 0 0 0 0 0 0 0 0 0 0 0 0 0 0 0
1 1 1 1 1 1 1 0 0 0 0 0 0 0 0 0 0 0 0 0 0 0 0 0 0 0 0 0 0 0 0 0 0 0 0 0 0 0 0 0 0 0 0
1 1 1 1 1 1 1 0 0 0 0 0 0 0 0 0 0 0 0 0 0 0 0 0 0 0 0 0 0 0 0 0 0 0 0 0 0 0 0 0 0 0 0
1 1 1 1 1 1 1 0 0 0 0 0 0 0 0 0 0 0 0 0 0 0 0 0 0 0 0 0 0 0 0 0 0 0 0 0 0 0 0 0 0 0 0
Wind_Speed
3 4 10 12 12 13 13 13 13 13 13 14 14 14 15 15 15 15 15 15 15 16 16 15 15 15 15 15 16 16 16 16 16 15 15 15 15 15 15 16 15 11 16
7 6 12 12 13 13 13 13 13 13 13 13 14 14 14 14 14 14 14 14 15 15 15 15 14 14 14 14 15 15 16 15 15 15 15 13 15 14 14 15 14 10 15
9 7 10 12 13 13 12 12 13 13 13 13 13 13 13 13 13 14 14 14 14 14 14 14 14 13 13 13 14 14 14 14 14 15 13 6 9 14 14 14 15 15 15
9 6 9 12 13 13 12 12 12 12 12 12 12 13 13 13 13 13 13 14 14 14 14 13 13 12 12 12 12 12 13 13 13 13 6 5 6 13 13 14 14 15 15
8 6 9 13 13 12 12 12 12 12 12 12 12 12 12 13 13 13 13 13 13 13 12 12 12 11 11 11 11 11 11 11 12 10 5 5 5 12 13 13 14 14 14
8 6 8 14 13 12 12 12 12 11 11 12 12 12 12 12 12 12 12 12 12 11 11 11 11 10 10 11 11 10 9 10 9 6 5 5 4 11 13 13 14 14 13
9 6 8 13 13 12 12 12 11 11 11 11 11 11 11 12 12 12 12 11 11 10 10 10 10 10 10 10 10 9 8 10 7 5 5 4 6 11 12 13 13 13 13
11 8 8 13 13 12 12 11 11 11 11 11 11 11 11 11 11 11 11 10 10 9 9 9 9 9 8 9 8 7 8 10 8 7 5 4 8 11 12 12 12 12 12
10 8 6 7 9 11 11 11 11 11 10 10 10 10 10 10 11 10 9 10 9 8 8 8 8 8 7 7 6 6 7 9 6 4 6 4 9 12 12 12 12 12 12
8 7 6 5 5 5 6 10 11 11 10 10 10 10 10 10 10 9 8 8 9 8 7 7 6 5 5 4 5 5 7 8 4 4 3 6 11 12 13 12 12 11 11
8 5 6 5 5 4 4 8 8 9 9 8 7 9 7 3 4 4 6 8 8 7 6 5 4 3 2 2 3 4 5 3 4 3 3 9 12 12 12 12 12 11 11
8 7 5 6 6 5 5 4 2 3 4 3 3 4 3 2 2 4 5 7 6 6 4 3 2 1 1 1 1 2 2 4 4 3 4 11 12 12 12 12 12 11 11
9 9 7 7 6 5 3 3 2 2 2 3 4 4 3 2 2 2 1 2 2 3 1 1 1 1 0 0 1 1 2 3 3 3 5 11 11 12 12 12 12 11 11
8 8 7 7 5 4 4 3 3 2 2 2 3 4 3 2 2 2 1 1 1 1 1 1 1 1 1 1 1 2 3 3 3 2 5 12 11 11 12 12 12 11 11
7 7 7 7 6 5 4 3 4 3 3 3 3 3 4 3 3 3 2 2 2 1 2 2 1 1 1 2 2 3 4 4 5 4 4 11 11 11 12 12 12 12 11
7 7 6 6 5 5 4 3 3 3 3 3 2 3 4 3 4 3 3 3 2 2 3 2 2 2 2 1 1 2 3 4 5 5 4 7 11 11 12 12 12 12 12
7 6 6 6 5 5 4 3 3 3 3 3 2 3 4 4 4 4 3 3 3 3 2 2 2 1 1 1 1 2 3 4 5 5 5 4 5 10 12 13 13 13 13
8 6 6 6 5 4 3 3 2 2 3 2 2 3 3 4 4 4 3 2 2 2 2 2 2 1 1 1 1 1 2 3 5 5 5 5 4 4 8 13 13 13 13
7 7 5 4 4 4 3 3 2 2 2 2 2 2 3 4 4 3 2 2 2 2 2 2 2 2 1 1 2 2 2 3 4 5 5 6 5 5 5 8 12 13 14
6 6 5 4 4 3 3 2 2 1 1 1 2 2 3 3 3 3 2 2 2 1 1 1 2 1 2 2 2 1 1 2 2 3 4 5 5 6 5 5 5 7 12
6 5 5 5 4 3 2 2 2 1 1 1 1 3 3 3 3 3 2 2 2 2 2 2 2 1 1 1 1 1 2 1 1 2 2 3 4 5 5 5 4 3 4
6 5 5 5 5 4 3 2 2 2 1 2 1 2 3 3 4 4 3 3 2 2 2 2 2 1 1 1 2 1 1 3 2 2 1 3 3 3 4 6 5 5 4
6 6 6 5 5 4 4 2 2 1 1 0 1 1 2 3 4 3 4 3 3 3 3 3 3 3 2 1 2 3 3 3 2 2 1 1 2 2 3 3 5 5 5
6 6 5 5 5 4 4 3 3 3 2 3 2 2 2 2 3 3 3 4 3 3 3 3 3 2 3 2 1 1 2 3 2 1 2 1 1 1 2 2 3 3 3
6 6 5 5 4 4 4 4 4 2 2 1 1 1 1 1 2 3 3 3 3 2 3 3 2 2 2 3 2 1 1 1 2 2 2 1 1 0 1 2 2 2 2
5 5 4 5 4 4 4 4 4 4 2 1 1 1 1 1 1 1 2 2 3 2 3 3 3 3 3 3 2 2 2 2 2 2 2 2 1 1 0 0 1 1 1
Wind_Direction
123 125 116 112 109 107 104 101 98 97 95 94 94 95 96 97 97 98 98 100 101 101 103 104 106 109 112 113 114 116 117 118 117 116 116 117 118 117 116 114 112 110 113
139 129 118 115 112 108 104 102 99 98 98 97 96 97 98 99 100 100 101 102 103 103 105 106 108 110 112 113 115 118 119 119 119 116 114 116 119 119 118 117 116 119 118
128 124 119 117 113 110 107 105 103 101 100 100 100 100 100 101 103 104 104 104 105 106 107 109 110 111 112 114 117 118 119 118 116 114 111 108 114 119 120 120 120 120 120
129 125 123 120 115 112 109 107 105 105 105 105 105 104 103 103 104 106 107 107 107 108 108 108 109 111 112 113 115 115 119 121 119 117 107 105 113 119 120 120 121 121 121
121 120 128 122 119 116 113 110 108 107 106 107 107 107 107 106 106 108 110 110 110 110 110 111 111 112 113 113 111 111 115 120 118 110 101 98 107 122 123 124 124 123 122
123 124 130 125 122 120 118 116 113 112 110 109 109 109 109 109 110 110 111 112 111 111 111 112 112 115 116 114 112 113 117 123 117 110 112 113 117 126 126 127 126 126 125
132 131 132 130 128 126 123 121 119 117 114 113 112 113 113 113 112 113 114 114 114 113 113 114 114 113 113 113 110 107 109 125 120 121 123 122 129 130 129 128 128 128 128
140 139 138 137 135 133 130 127 125 122 121 120 118 118 118 116 113 113 117 118 119 119 118 116 115 113 114 112 109 107 110 124 125 131 128 129 136 135 133 132 132 133 132
141 141 139 141 139 140 137 134 130 128 127 126 124 124 123 122 122 121 121 123 124 123 121 119 118 116 115 114 108 109 115 125 126 134 137 137 142 142 139 139 140 140 138
141 145 145 140 136 139 141 142 139 138 138 136 134 133 130 128 128 126 126 128 128 127 126 124 123 122 119 115 114 114 115 123 130 131 132 150 150 149 147 147 146 145 142
147 153 155 149 149 147 153 152 149 148 148 145 142 140 130 112 115 126 139 136 133 134 134 134 135 134 125 114 122 114 112 121 130 134 145 153 154 154 154 153 152 150 149
159 166 164 166 166 164 164 143 151 154 150 148 148 140 132 137 148 145 152 144 146 145 148 162 176 167 114 63 95 93 107 129 134 147 157 159 160 159 159 158 158 157 156
159 163 166 171 170 167 154 158 170 156 165 176 174 166 153 144 143 132 137 144 157 160 145 223 244 271 211 194 137 127 143 142 144 154 163 164 166 166 165 166 166 164 164
151 158 161 155 156 162 156 166 172 168 177 183 178 171 157 148 152 159 170 182 185 167 190 220 234 241 241 240 195 167 147 145 150 153 171 170 171 171 171 171 171 174 174
147 151 155 147 154 159 152 164 166 171 178 181 168 167 159 158 165 170 178 192 206 193 190 204 222 223 231 249 207 167 152 155 161 167 176 179 179 180 179 179 179 181 181
150 148 147 149 156 147 147 151 156 163 170 160 159 164 161 158 164 169 175 189 210 211 201 197 202 201 205 194 188 170 163 165 169 176 179 186 188 187 188 188 189 190 190
152 146 149 156 155 149 146 150 146 160 159 158 164 165 164 160 162 166 172 186 203 203 199 187 184 171 178 180 182 189 174 177 177 180 181 185 193 197 196 196 197 197 199
149 147 158 156 154 155 143 137 132 148 150 158 162 162 168 168 163 158 166 191 197 178 176 180 173 149 170 181 196 208 188 184 185 186 186 188 191 199 206 205 205 205 207
153 154 158 146 153 153 137 130 122 123 143 160 162 168 179 174 163 157 172 185 180 168 173 187 168 166 176 213 219 217 209 196 197 192 192 194 195 198 201 208 210 212 214
151 153 151 147 155 147 130 115 107 106 135 146 169 184 182 181 172 162 172 181 170 155 174 168 164 172 181 200 225 240 258 223 201 197 200 196 198 205 204 207 209 218 219
147 150 153 151 159 148 141 140 142 163 196 189 203 195 193 190 181 170 172 177 172 174 195 182 155 161 205 165 103 360 338 304 230 212 205 194 196 200 198 197 197 204 219
158 159 157 160 166 169 168 165 165 167 197 203 214 220 208 197 191 184 176 182 187 179 181 179 156 157 214 164 145 124 339 335 324 249 212 205 204 191 192 196 194 199 203
165 170 170 169 166 173 169 140 118 87 54 52 222 240 232 206 195 188 186 184 186 178 191 200 180 169 198 234 173 158 164 220 280 320 289 216 187 183 200 197 196 207 204
176 170 165 168 166 168 160 153 157 164 184 215 204 211 238 217 199 194 195 195 193 186 193 207 189 182 179 213 235 204 184 172 170 274 320 314 201 194 201 203 202 204 201
166 164 166 163 168 169 167 170 165 174 200 210 177 196 238 246 219 209 198 194 193 193 201 203 190 190 185 187 197 202 200 187 167 168 249 299 349 319 188 195 195 181 187
151 152 155 157 169 173 174 174 174 176 176 163 171 183 224 248 252 242 200 189 195 196 200 199 198 197 197 185 186 187 180 183 191 177 205 225 237 294 2 166 180 182 173